STARLINK-33957, 63897

Orbit data source: Space-Track

STARLINK-33957, 63897 is a payload satellite owned by SpaceX/Seattle (US) in LEO that was launched on Sat, 10 May 2025 UTC via an FALCON 9 launch vehicle from the Air Force Eastern Test Range (AFETR). Payload-class satellites include a variety of spacecraft equipped with specific instruments for various scientific and technological missions. These include communications satellites like Starlink; space stations such as the ISS; scientific satellites like the Hubble; Earth observation satellites from companies like Planet Labs, Umbra, and HawkEye 360; GPS; miniature CubeSats for education and research; and military/defense satellites.

Loading next visibility...
Identifier
63897, 2025-095H
Orbit
LEO
Country
Flag of USUS
Related business
Manufacturer
SpaceX/Seattle
Mission
Operational Commercial Communications
Bus & Motor
STARLINK V2MO, Unknown motor
Mass
575 kg wet, ~530 kg dry
Launch date (UTC)
2025-05-10 (1 year ago)
Launch vehicle
FALCON 9
Launch site
Air Force Eastern Test Range (AFETR)
Object type
Payload
Rocket body
Debris
Shape & HBR
Box + 2 Pan, 17.7 m
Radar Cross Section
36.964 m², Large (>1 m²)

Expand to show TLE details & history
Last TLE update: 9 hours ago

TLE from 9 hours ago
0 STARLINK-33957
1 63897U 25095H   26171.47261546  .00012911  00000-0  47769-3 0  9996
2 63897  42.9970 316.0535 0001428 248.7428 111.3271 15.27592569 63498
Epoch: 2026-06-20T11:20Z
TLE epoch observation values (Epoch: 2026-06-20T11:20:33.975Z)
Latitude
-0.00004°
Longitude
-122.77485°
Altitude
483.143 km
Speed
7.625 km/s
True Right ascension
21h 04m 12s
True Declination
0° 00' 00"
Sunlit
Object was in full shadow at epoch
Visualization orbit readout
Latitude
Unknown
Longitude
Unknown
Altitude
Unknown
Speed
Unknown
Apparent Right ascension
Unknown
Apparent Declination
Unknown
Sunlit
N/A
Visualization observer readout
Local Sidereal Time
07:17:22
Azimuth
Unknown
Elevation
Unknown
Doppler factor
Unknown
Orbital elements
Apogee altitude
485.937 km
Perigee altitude
483.977 km
Semi-major axis
6,863.094 km
Eccentricity
0.00014
Inclination
42.997°
RAAN
316.0535°
Arg. of periapsis
248.7428°
True anomaly
111.34234°
Mean anomaly
111.3271°
Eccentric anomaly
111.33472°
Mean motion
3.81736 °/min
Orbital period
94.31 mins
BSTAR
0.00047769
Loading maneuver chart data...
Computing Atmospheric mass density...
Loading historical data...
Loading historical data...
Loading historical data...
Loading historical data...
Loading historical data...
Loading historical data...
Loading historical data...

Documentation

Showing up to 5 results
|